#timestamp,LO_Frequency,Hit,StdDev 
1634349615.7,286047000.1,N
1634349635.5,286047001.7,Y
1634349655.3,286047002.5,P
1634349675.2,286047001.1,N
1634349695.0,286047000.4,N
1634349695.9,286047000.4,N
1634349715.8,286047002.8,Y
1634349735.6,286046998.9,P
1634349755.4,286046998.3,N
1634349775.3,286046998.4,N
1634349795.1,286046999.4,N
1634349815.8,286046998.4,N
1634349835.7,286047001.1,N
1634349855.5,286046998.2,N
1634349875.4,286047000.4,N
1634349895.2,286047002.6,N
1634349915.0,286047001.6,N
1634349915.9,286047001.6,N
1634349935.8,286047001.5,N
1634349955.6,286047003.5,N
1634349975.4,286047001.8,N
1634349995.3,286047000.8,N
1634350015.1,286046998.2,N
1634350035.9,286047002.7,N
1634350055.7,286046998.1,N
1634350075.5,286046999.0,N
1634350095.4,286046998.9,N
1634350115.2,286047000.6,N
1634350135.0,286047004.2,N
1634350136.0,286047004.2,N
1634350155.8,286047001.9,N
1634350175.6,286047001.4,N
1634350195.5,286047001.6,N
1634350215.3,286047002.4,N
1634350235.1,286047000.6,N
1634350255.9,286047002.5,N
1634350275.7,286047004.4,N
1634350295.6,286047003.5,N
1634350315.4,286047003.1,N
1634350335.2,286047001.5,N
1634350355.1,286046999.7,N
1634350356.0,286046999.7,N
1634350375.8,286047002.3,N
1634350395.6,286047004.0,N
1634350445.5,286047006.8,E
1634350455.4,286047004.3,N
1634350475.3,286046997.1,P
1634350495.1,286046996.6,N
1634350515.8,286046997.1,N
1634350535.7,286046997.9,N
1634350555.5,286046995.1,N
1634350575.4,286046995.5,N
1634350595.2,286046995.5,N
1634350615.0,286046995.1,N
1634350615.9,286046995.1,N
1634350635.8,286046995.4,N
1634350655.6,286046997.7,N
1634350675.4,286046996.2,N
1634350695.3,286046996.1,N
1634350715.1,286046993.4,N
1634350735.9,286046991.9,Y
1634350755.7,286046997.1,P
1634350775.5,286046997.4,P
1634350795.4,286046996.8,P
1634350815.2,286046994.9,Y
1634350835.1,286046999.7,P
1634350836.0,286046999.7,N
1634350855.8,286046998.2,N
1634350875.6,286046996.5,Y
1634350895.5,286046997.0,P
1634350915.3,286047001.1,N
1634350935.1,286047002.3,N
1634350955.9,286047002.6,N
1634350975.7,286047002.8,N
1634350995.6,286047002.0,N
1634351015.4,286047005.6,N
1634351035.2,286047005.7,N
1634351055.1,286047006.1,N
1634351056.0,286047006.1,N
1634351075.8,286047007.0,N
1634351095.6,286047003.3,N
1634351115.5,286047005.9,N
1634351135.3,286047003.0,N
1634351155.2,286047003.1,N
1634351175.9,286047005.9,N
1634351195.7,286047004.1,N
1634351215.6,286047003.3,N
1634351235.4,286047003.3,N
1634351255.3,286047005.9,N
1634351275.1,286047003.7,N
1634351276.0,286047003.7,N
1634351295.8,286047001.4,N
1634351315.7,286047003.2,N
1634351335.5,286047003.7,N
1634351355.3,286047004.2,N
1634351375.2,286047003.7,N
1634351395.0,286047003.1,N
1634351395.9,286047003.1,N
1634351415.8,286047004.4,N
1634351435.6,286047000.0,N
1634351455.4,286046999.9,N
1634351475.3,286047003.8,N
1634351495.1,286047003.8,N
1634351515.8,286047003.0,N
1634351535.7,286047003.2,N
1634351555.5,286047003.4,N
1634351575.4,286047003.1,N
1634351595.2,286047001.7,N
1634351615.0,286047011.9,Y
1634351615.9,286047002.3,P
1634351635.8,286046999.1,N
1634351655.6,286046998.1,N
1634351675.4,286046998.7,N
1634351695.3,286046999.6,N
1634351715.1,286046998.1,N
1634351735.9,286046998.5,N
1634351755.7,286047000.3,N
1634351775.5,286047000.1,N
1634351795.4,286047001.8,N
1634351815.2,286047002.5,N
1634351835.0,286047001.8,N
1634351836.0,286047001.8,N
1634351855.8,286046999.7,N
1634351875.6,286047001.9,N
1634351895.5,286047002.3,N
1634351915.3,286047000.0,N
1634351935.1,286047000.5,N
1634351955.9,286047000.6,N
1634351975.7,286047000.3,N
1634351995.6,286047002.2,N
1634352015.4,286047002.6,N
1634352035.2,286047001.3,N
1634352055.1,286047003.9,N
1634352056.0,286047003.9,N
1634352075.8,286046999.7,N
1634352095.6,286047000.0,N
1634352115.5,286046999.9,N
1634352135.3,286047001.8,N
1634352155.2,286047001.3,N
1634352175.9,286047003.6,N
1634352195.7,286047007.6,Y
1634352215.6,286047004.7,P
1634352235.4,286047006.0,P
1634352255.2,286047003.1,N
1634352275.1,286047005.5,N
1634352276.0,286047005.5,N
1634352295.8,286047005.1,N
1634352315.7,286047004.7,N
1634352335.5,286047004.7,N
1634352355.3,286047003.5,N
1634352375.2,286047003.9,N
1634352395.0,286047004.2,Y
1634352395.9,286047004.2,P
1634352415.8,286046998.9,P
1634352435.6,286047001.1,N
1634352455.4,286047000.9,N
1634352475.3,286047000.8,N
1634352495.1,286047000.5,N
1634352515.8,286047001.1,N
1634352535.7,286046998.4,N
1634352555.5,286046998.8,N
1634352575.4,286047000.6,N
1634352595.2,286047000.5,N
1634352615.0,286047000.3,N
1634352615.9,286047000.3,N
1634352635.8,286047001.9,N
1634352655.6,286046999.8,N
1634352675.4,286047000.3,N
1634352695.3,286047000.8,N
1634352715.1,286047001.2,N
1634352735.9,286047001.2,N
1634352755.7,286046998.7,N
1634352775.5,286046999.0,N
1634352795.4,286046996.5,N
1634352815.2,286046998.1,N
1634352835.0,286046998.1,N
1634352836.0,286046998.1,N
1634352855.8,286046996.6,N
1634352875.6,286046996.9,N
1634352895.5,286046998.4,N
1634352915.3,286046998.1,N
1634352935.1,286046997.4,N
1634352955.9,286046997.9,N
1634352975.7,286046998.6,N
1634352995.6,286046998.9,N
1634353015.4,286047001.1,N
1634353035.2,286047000.8,N
1634353055.1,286046998.1,N
1634353056.0,286046998.1,N
1634353075.8,286047001.2,N
1634353095.6,286046998.5,N
1634353115.5,286047000.7,N
1634353135.3,286047000.4,N
1634353155.2,286047002.5,N
1634353175.9,286046998.1,N
1634353195.7,286047000.8,N
